| time (UTC) | temp F | wind direction | speed MPH | gust MPH | rain 1hr in | rain 24hr in | rain mn in | humidity % | barometer mb |
| 20260506134733 | 44 | 99 | 6.0 | 12.0 | 0.00 | 0.00 | 0.00 | 79 | 1017.0 |
| 20260506134233 | 44 | 110 | 6.0 | 10.0 | 0.00 | 0.00 | 0.00 | 80 | 1016.9 |
| 20260506133733 | 45 | 105 | 6.0 | 13.0 | 0.00 | 0.00 | 0.00 | 80 | 1016.8 |
| 20260506133233 | 44 | 124 | 7.0 | 15.0 | 0.00 | 0.00 | 0.00 | 79 | 1016.7 |
| 20260506132733 | 45 | 113 | 6.0 | 12.0 | 0.00 | 0.00 | 0.00 | 79 | 1016.7 |
| 20260506132503 | 45 | 103 | 6.0 | 12.0 | 0.00 | 0.00 | 0.00 | 79 | 1016.8 |
| 20260506131733 | 45 | 107 | 8.0 | 13.0 | 0.00 | 0.00 | 0.00 | 79 | 1016.7 |
| 20260506131232 | 45 | 95 | 8.0 | 13.0 | 0.00 | 0.00 | 0.00 | 79 | 1016.8 |
| 20260506130733 | 45 | 96 | 8.0 | 13.0 | 0.00 | 0.00 | 0.00 | 79 | 1016.7 |
| 20260506130233 | 44 | 89 | 9.0 | 14.0 | 0.00 | 0.00 | 0.00 | 79 | 1016.8 |
| 20260506125959 | 44 | 112 | 8.0 | 14.0 | 0.00 | 0.00 | 0.00 | 78 | 1016.8 |
| 20260506125228 | 44 | 106 | 7.0 | 11.0 | 0.00 | 0.00 | 0.00 | 79 | 1016.8 |
| 20260506124727 | 44 | 98 | 8.0 | 11.0 | 0.00 | 0.00 | 0.00 | 79 | 1016.8 |
| 20260506124226 | 44 | 99 | 8.0 | 11.0 | 0.00 | 0.00 | 0.00 | 79 | 1016.9 |
| 20260506123725 | 44 | 88 | 6.0 | 11.0 | 0.00 | 0.00 | 0.00 | 79 | 1016.8 |
| 20260506123224 | 45 | 104 | 4.0 | 8.0 | 0.00 | 0.00 | 0.00 | 79 | 1017.0 |
| 20260506122724 | 44 | 90 | 6.0 | 12.0 | 0.00 | 0.00 | 0.00 | 78 | 1017.1 |
| 20260506122220 | 44 | 87 | 6.0 | 12.0 | 0.00 | 0.00 | 0.00 | 78 | 1016.8 |
| 20260506121721 | 44 | 89 | 5.0 | 11.0 | 0.00 | 0.00 | 0.00 | 78 | 1016.7 |
| 20260506121220 | 44 | 90 | 6.0 | 10.0 | 0.00 | 0.00 | 0.00 | 78 | 1016.5 |
| 20260506120720 | 44 | 90 | 7.0 | 11.0 | 0.00 | 0.00 | 0.00 | 78 | 1016.4 |
| 20260506120219 | 44 | 94 | 7.0 | 11.0 | 0.00 | 0.00 | 0.00 | 78 | 1016.5 |
| 20260506115949 | 44 | 98 | 7.0 | 12.0 | 0.00 | 0.00 | 0.00 | 78 | 1016.3 |
| 20260506115439 | 44 | 122 | 7.0 | 11.0 | 0.00 | 0.00 | 0.00 | 78 | 1016.1 |
| 20260506115313 | 44 | 88 | 7.0 | 12.0 | 0.00 | 0.00 | 0.00 | 78 | 1016.0 |
| 20260506114812 | 44 | 109 | 6.0 | 12.0 | 0.00 | 0.00 | 0.00 | 78 | 1015.9 |
| 20260506113704 | 45 | 98 | 6.0 | 12.0 | 0.00 | 0.00 | 0.00 | 77 | 1015.8 |
| 20260506113205 | 44 | 144 | 6.0 | 11.0 | 0.00 | 0.00 | 0.00 | 78 | 1015.7 |
| 20260506112704 | 44 | 115 | 6.0 | 11.0 | 0.00 | 0.00 | 0.00 | 78 | 1015.7 |
| 20260506112204 | 44 | 122 | 6.0 | 11.0 | 0.00 | 0.00 | 0.00 | 77 | 1015.7 |
| 20260506111702 | 44 | 104 | 6.0 | 11.0 | 0.00 | 0.00 | 0.00 | 77 | 1015.7 |
| 20260506111202 | 44 | 94 | 6.0 | 11.0 | 0.00 | 0.00 | 0.00 | 78 | 1015.7 |
| 20260506110702 | 44 | 91 | 6.0 | 11.0 | 0.00 | 0.00 | 0.00 | 77 | 1015.6 |
| 20260506110203 | 44 | 114 | 5.0 | 10.0 | 0.00 | 0.00 | 0.00 | 77 | 1015.6 |
| 20260506105702 | 44 | 105 | 5.0 | 11.0 | 0.00 | 0.00 | 0.00 | 78 | 1015.4 |
| 20260506105200 | 44 | 75 | 5.0 | 11.0 | 0.00 | 0.00 | 0.00 | 78 | 1015.5 |
| 20260506104658 | 44 | 68 | 5.0 | 9.0 | 0.00 | 0.00 | 0.00 | 78 | 1015.5 |
| 20260506104158 | 44 | 53 | 4.0 | 7.0 | 0.00 | 0.00 | 0.00 | 78 | 1015.5 |
| 20260506103658 | 44 | 46 | 4.0 | 7.0 | 0.00 | 0.00 | 0.00 | 78 | 1015.6 |
| 20260506103200 | 44 | 58 | 4.0 | 7.0 | 0.00 | 0.00 | 0.00 | 78 | 1015.5 |
| 20260506102656 | 44 | 38 | 4.0 | 8.0 | 0.00 | 0.00 | 0.00 | 79 | 1015.5 |
| 20260506102154 | 43 | 46 | 4.0 | 8.0 | 0.00 | 0.00 | 0.00 | 79 | 1015.4 |
| 20260506101925 | 43 | 65 | 5.0 | 16.0 | 0.00 | 0.00 | 0.00 | 79 | 1015.4 |
| 20260506101154 | 43 | 56 | 5.0 | 16.0 | 0.00 | 0.00 | 0.00 | 79 | 1015.3 |
| 20260506100654 | 43 | 30 | 6.0 | 10.0 | 0.00 | 0.00 | 0.00 | 79 | 1015.1 |
| 20260506100155 | 43 | 56 | 6.0 | 9.0 | 0.00 | 0.00 | 0.00 | 79 | 1014.9 |
| 20260506095655 | 43 | 58 | 6.0 | 10.0 | 0.00 | 0.00 | 0.00 | 79 | 1014.9 |
| 20260506095154 | 43 | 50 | 6.0 | 10.0 | 0.00 | 0.00 | 0.00 | 79 | 1014.9 |
| 20260506094654 | 43 | 45 | 5.0 | 9.0 | 0.00 | 0.00 | 0.00 | 79 | 1014.8 |
| 20260506094154 | 43 | 56 | 5.0 | 9.0 | 0.00 | 0.00 | 0.00 | 79 | 1014.7 |
| 20260506093653 | 43 | 42 | 5.0 | 11.0 | 0.00 | 0.00 | 0.00 | 79 | 1014.7 |
| 20260506093152 | 43 | 103 | 7.0 | 12.0 | 0.00 | 0.00 | 0.00 | 79 | 1014.3 |
| 20260506092650 | 42 | 105 | 6.0 | 12.0 | 0.00 | 0.00 | 0.00 | 79 | 1014.3 |
| 20260506092151 | 42 | 98 | 5.0 | 10.0 | 0.00 | 0.00 | 0.00 | 79 | 1014.4 |
| 20260506091646 | 42 | 43 | 5.0 | 10.0 | 0.00 | 0.00 | 0.00 | 80 | 1014.3 |
| 20260506091146 | 42 | 47 | 6.0 | 12.0 | 0.00 | 0.00 | 0.00 | 80 | 1014.2 |
| 20260506090646 | 42 | 56 | 6.0 | 12.0 | 0.00 | 0.00 | 0.00 | 80 | 1014.1 |
| 20260506090148 | 42 | 40 | 6.0 | 12.0 | 0.00 | 0.00 | 0.00 | 79 | 1013.8 |
| 20260506085917 | 42 | 50 | 7.0 | 12.0 | 0.00 | 0.00 | 0.00 | 79 | 1013.8 |
| 20260506085143 | 42 | 40 | 6.0 | 12.0 | 0.00 | 0.00 | 0.00 | 79 | 1013.8 |
| 20260506084644 | 42 | 52 | 6.0 | 12.0 | 0.00 | 0.00 | 0.00 | 79 | 1013.8 |
| 20260506084143 | 42 | 37 | 7.0 | 13.0 | 0.00 | 0.00 | 0.00 | 79 | 1013.9 |
| 20260506083644 | 42 | 60 | 8.0 | 15.0 | 0.00 | 0.00 | 0.00 | 79 | 1013.9 |
| 20260506083144 | 42 | 51 | 8.0 | 15.0 | 0.00 | 0.00 | 0.00 | 79 | 1013.8 |
| 20260506082643 | 42 | 56 | 6.0 | 12.0 | 0.00 | 0.00 | 0.00 | 78 | 1013.8 |
| 20260506082140 | 42 | 56 | 5.0 | 12.0 | 0.00 | 0.00 | 0.00 | 78 | 1013.8 |
| 20260506081641 | 42 | 54 | 5.0 | 10.0 | 0.00 | 0.00 | 0.00 | 78 | 1013.6 |
| 20260506081138 | 42 | 53 | 4.0 | 9.0 | 0.00 | 0.00 | 0.00 | 77 | 1013.4 |
| 20260506080639 | 42 | 54 | 3.0 | 7.0 | 0.00 | 0.00 | 0.00 | 77 | 1013.3 |
| 20260506080407 | 43 | 42 | 4.0 | 11.0 | 0.00 | 0.00 | 0.00 | 77 | 1013.2 |
| 20260506073133 | 44 | 65 | 9.0 | 14.0 | 0.00 | 0.00 | 0.00 | 75 | 1012.3 |
| 20260506072632 | 44 | 60 | 9.0 | 14.0 | 0.00 | 0.00 | 0.00 | 75 | 1012.3 |
| 20260506072132 | 44 | 41 | 8.0 | 14.0 | 0.00 | 0.00 | 0.00 | 74 | 1012.5 |
| 20260506071631 | 44 | 69 | 8.0 | 14.0 | 0.00 | 0.00 | 0.00 | 74 | 1012.6 |
| 20260506071130 | 44 | 55 | 8.0 | 14.0 | 0.00 | 0.00 | 0.00 | 74 | 1012.5 |
| 20260506070630 | 44 | 64 | 7.0 | 12.0 | 0.00 | 0.00 | 0.00 | 73 | 1012.5 |
| 20260506070132 | 44 | 35 | 7.0 | 12.0 | 0.00 | 0.00 | 0.00 | 73 | 1012.7 |
| 20260506062113 | 47 | 34 | 7.0 | 11.0 | 0.00 | 0.00 | 0.00 | 67 | 1012.7 |
| 20260506061614 | 47 | 23 | 6.0 | 11.0 | 0.00 | 0.00 | 0.00 | 65 | 1012.5 |
| 20260506061112 | 48 | 32 | 7.0 | 11.0 | 0.00 | 0.00 | 0.00 | 66 | 1012.1 |
| 20260506060604 | 48 | 17 | 6.0 | 11.0 | 0.00 | 0.00 | 0.00 | 65 | 1012.0 |
| 20260506051058 | 50 | 84 | 10.0 | 16.0 | 0.00 | 0.00 | 0.00 | 61 | 1010.4 |
| 20260506050558 | 51 | 120 | 11.0 | 16.0 | 0.00 | 0.00 | 0.00 | 61 | 1010.3 |
| 20260506044558 | 51 | 103 | 10.0 | 16.0 | 0.00 | 0.00 | 0.00 | 59 | 1010.3 |
| 20260506044056 | 51 | 113 | 9.0 | 14.0 | 0.00 | 0.00 | 0.00 | 59 | 1010.3 |
| 20260506043552 | 51 | 108 | 10.0 | 15.0 | 0.00 | 0.00 | 0.00 | 58 | 1010.3 |
| 20260506043050 | 51 | 80 | 10.0 | 17.0 | 0.00 | 0.00 | 0.00 | 58 | 1010.3 |
| 20260506042550 | 51 | 114 | 10.0 | 17.0 | 0.00 | 0.00 | 0.00 | 58 | 1010.1 |
| 20260506042322 | 51 | 78 | 10.0 | 16.0 | 0.00 | 0.00 | 0.00 | 58 | 1010.1 |
| 20260506041549 | 51 | 89 | 11.0 | 16.0 | 0.00 | 0.00 | 0.00 | 58 | 1010.0 |
| 20260506041048 | 51 | 96 | 10.0 | 15.0 | 0.00 | 0.00 | 0.00 | 58 | 1009.9 |
| 20260506040548 | 52 | 124 | 10.0 | 17.0 | 0.00 | 0.00 | 0.00 | 57 | 1009.8 |
| 20260506040045 | 52 | 101 | 10.0 | 17.0 | 0.00 | 0.00 | 0.00 | 57 | 1009.8 |
| 20260506035547 | 52 | 98 | 10.0 | 15.0 | 0.00 | 0.00 | 0.00 | 57 | 1009.8 |
| 20260506035046 | 52 | 100 | 10.0 | 18.0 | 0.00 | 0.00 | 0.00 | 57 | 1009.9 |
| 20260506034546 | 52 | 94 | 10.0 | 18.0 | 0.00 | 0.00 | 0.00 | 57 | 1009.8 |
| 20260506034044 | 52 | 97 | 10.0 | 16.0 | 0.00 | 0.00 | 0.00 | 57 | 1009.8 |
| 20260506033544 | 53 | 95 | 10.0 | 16.0 | 0.00 | 0.00 | 0.00 | 57 | 1009.7 |
| 20260506033043 | 53 | 99 | 9.0 | 14.0 | 0.00 | 0.00 | 0.00 | 57 | 1009.6 |
| 20260506032545 | 53 | 82 | 8.0 | 12.0 | 0.00 | 0.00 | 0.00 | 57 | 1009.7 |
| 20260506032044 | 53 | 43 | 8.0 | 13.0 | 0.00 | 0.00 | 0.00 | 57 | 1009.6 |
| 20260506031543 | 53 | 148 | 8.0 | 15.0 | 0.00 | 0.00 | 0.00 | 57 | 1009.6 |
| 20260506031044 | 53 | 97 | 7.0 | 15.0 | 0.00 | 0.00 | 0.00 | 58 | 1009.6 |
| 20260506030544 | 54 | 98 | 7.0 | 13.0 | 0.00 | 0.00 | 0.00 | 58 | 1009.5 |
| 20260506030041 | 54 | 53 | 7.0 | 13.0 | 0.00 | 0.00 | 0.00 | 56 | 1009.3 |
| 20260506025811 | 54 | 58 | 6.0 | 11.0 | 0.00 | 0.00 | 0.00 | 56 | 1009.3 |
| 20260506025308 | 55 | 49 | 6.0 | 11.0 | 0.00 | 0.00 | 0.00 | 55 | 1009.3 |
| 20260506024807 | 55 | 53 | 6.0 | 13.0 | 0.00 | 0.00 | 0.00 | 55 | 1009.1 |
| 20260506024036 | 55 | 40 | 7.0 | 13.0 | 0.00 | 0.00 | 0.00 | 54 | 1009.0 |
| 20260506023534 | 55 | 52 | 8.0 | 13.0 | 0.00 | 0.00 | 0.00 | 54 | 1009.0 |
| 20260506023038 | 56 | 44 | 9.0 | 17.0 | 0.00 | 0.00 | 0.00 | 54 | 1008.9 |
| 20260506023034 | 55 | 37 | 9.0 | 13.0 | 0.00 | 0.00 | 0.00 | 54 | 1008.9 |
| 20260506022032 | 56 | 38 | 9.0 | 17.0 | 0.00 | 0.00 | 0.00 | 54 | 1008.5 |
| 20260506021532 | 56 | 49 | 9.0 | 16.0 | 0.00 | 0.00 | 0.00 | 56 | 1008.4 |
| 20260506021031 | 55 | 52 | 8.0 | 16.0 | 0.00 | 0.00 | 0.00 | 57 | 1008.4 |
| 20260506020532 | 55 | 69 | 6.0 | 11.0 | 0.00 | 0.00 | 0.00 | 60 | 1008.8 |
| 20260506020033 | 55 | 34 | 6.0 | 11.0 | 0.00 | 0.00 | 0.00 | 62 | 1008.9 |
| 20260506015517 | 55 | 23 | 8.0 | 12.0 | 0.00 | 0.00 | 0.00 | 62 | 1008.8 |
| 20260506015016 | 55 | 29 | 9.0 | 14.0 | 0.00 | 0.00 | 0.00 | 61 | 1008.5 |
| 20260506014515 | 56 | 8 | 10.0 | 14.0 | 0.00 | 0.00 | 0.00 | 60 | 1008.3 |
| 20260506014011 | 56 | 11 | 11.0 | 17.0 | 0.00 | 0.00 | 0.00 | 60 | 1008.1 |
| 20260506013512 | 56 | 18 | 13.0 | 19.0 | 0.00 | 0.00 | 0.00 | 58 | 1007.8 |
| 20260506013010 | 57 | 16 | 14.0 | 23.0 | 0.00 | 0.00 | 0.00 | 55 | 1007.8 |
| 20260506012515 | 60 | 26 | 16.0 | 23.0 | 0.00 | 0.00 | 0.00 | 45 | 1007.6 |
| 20260506012510 | 58 | 27 | 16.0 | 23.0 | 0.00 | 0.00 | 0.00 | 50 | 1007.8 |
| 20260506011507 | 60 | 21 | 15.0 | 21.0 | 0.00 | 0.00 | 0.00 | 44 | 1007.5 |
| 20260506011008 | 60 | 23 | 14.0 | 21.0 | 0.00 | 0.00 | 0.00 | 43 | 1007.2 |
| 20260506010508 | 61 | 32 | 13.0 | 23.0 | 0.00 | 0.00 | 0.00 | 42 | 1006.9 |
| 20260506010005 | 62 | 41 | 12.0 | 23.0 | 0.00 | 0.00 | 0.00 | 41 | 1006.4 |
| 20260506005504 | 63 | 14 | 12.0 | 19.0 | 0.00 | 0.00 | 0.00 | 40 | 1006.1 |
| 20260506005234 | 63 | 58 | 13.0 | 20.0 | 0.00 | 0.00 | 0.00 | 40 | 1006.1 |
| 20260506004502 | 64 | 33 | 13.0 | 20.0 | 0.00 | 0.00 | 0.00 | 39 | 1005.8 |
| 20260506004005 | 65 | 58 | 11.0 | 17.0 | 0.00 | 0.00 | 0.00 | 38 | 1005.5 |
| 20260506004001 | 65 | 37 | 13.0 | 18.0 | 0.00 | 0.00 | 0.00 | 38 | 1005.5 |
| 20260506002959 | 66 | 85 | 11.0 | 21.0 | 0.00 | 0.00 | 0.00 | 37 | 1005.3 |
| 20260506002458 | 66 | 56 | 11.0 | 21.0 | 0.00 | 0.00 | 0.00 | 37 | 1005.2 |
| 20260506001957 | 66 | 79 | 9.0 | 16.0 | 0.00 | 0.00 | 0.00 | 37 | 1005.3 |
| 20260506001458 | 66 | 49 | 9.0 | 15.0 | 0.00 | 0.00 | 0.00 | 37 | 1005.2 |
| 20260506000956 | 66 | 75 | 9.0 | 18.0 | 0.00 | 0.00 | 0.00 | 37 | 1005.4 |
| 20260506000455 | 66 | 99 | 10.0 | 18.0 | 0.00 | 0.00 | 0.00 | 36 | 1005.4 |
| 20260506000227 | 66 | 44 | 10.0 | 16.0 | 0.00 | 0.00 | 0.00 | 36 | 1005.3 |
| 20260505235454 | 67 | 115 | 10.0 | 16.0 | 0.00 | 0.00 | 0.00 | 36 | 1005.1 |
| 20260505234955 | 67 | 75 | 11.0 | 19.0 | 0.00 | 0.00 | 0.00 | 35 | 1005.2 |
| 20260505234452 | 67 | 120 | 11.0 | 19.0 | 0.00 | 0.00 | 0.00 | 35 | 1005.2 |
| 20260505233951 | 67 | 106 | 11.0 | 19.0 | 0.00 | 0.00 | 0.00 | 35 | 1005.3 |
| 20260505233453 | 67 | 133 | 12.0 | 19.0 | 0.00 | 0.00 | 0.00 | 35 | 1005.3 |
| 20260505232949 | 67 | 86 | 12.0 | 19.0 | 0.00 | 0.00 | 0.00 | 35 | 1005.3 |
| 20260505232449 | 67 | 91 | 11.0 | 19.0 | 0.00 | 0.00 | 0.00 | 35 | 1005.3 |
| 20260505232221 | 67 | 131 | 9.0 | 17.0 | 0.00 | 0.00 | 0.00 | 35 | 1005.3 |
| 20260505231719 | 67 | 85 | 10.0 | 17.0 | 0.00 | 0.00 | 0.00 | 35 | 1005.3 |
| 20260505230948 | 67 | 101 | 11.0 | 17.0 | 0.00 | 0.00 | 0.00 | 35 | 1005.3 |
| 20260505230718 | 67 | 102 | 9.0 | 16.0 | 0.00 | 0.00 | 0.00 | 35 | 1005.4 |
| 20260505225948 | 67 | 113 | 8.0 | 15.0 | 0.00 | 0.00 | 0.00 | 35 | 1005.4 |
| 20260505225445 | 67 | 89 | 7.0 | 15.0 | 0.00 | 0.00 | 0.00 | 35 | 1005.4 |
| 20260505224945 | 67 | 54 | 7.0 | 14.0 | 0.00 | 0.00 | 0.00 | 35 | 1005.6 |
| 20260505224446 | 67 | 86 | 7.0 | 13.0 | 0.00 | 0.00 | 0.00 | 35 | 1005.6 |
| 20260505223945 | 67 | 80 | 7.0 | 13.0 | 0.00 | 0.00 | 0.00 | 35 | 1005.7 |
| 20260505223445 | 67 | 63 | 7.0 | 12.0 | 0.00 | 0.00 | 0.00 | 35 | 1005.8 |
| 20260505222950 | 67 | 47 | 7.0 | 11.0 | 0.00 | 0.00 | 0.00 | 35 | 1006.0 |
| 20260505222946 | 67 | 63 | 7.0 | 11.0 | 0.00 | 0.00 | 0.00 | 35 | 1005.9 |
| 20260505221946 | 67 | 39 | 7.0 | 11.0 | 0.00 | 0.00 | 0.00 | 35 | 1006.0 |
| 20260505221445 | 68 | 26 | 5.0 | 11.0 | 0.00 | 0.00 | 0.00 | 35 | 1006.0 |
| 20260505220943 | 67 | 48 | 5.0 | 8.0 | 0.00 | 0.00 | 0.00 | 35 | 1006.0 |
| 20260505220441 | 67 | 63 | 7.0 | 14.0 | 0.00 | 0.00 | 0.00 | 35 | 1006.1 |
| 20260505215943 | 67 | 42 | 7.0 | 14.0 | 0.00 | 0.00 | 0.00 | 34 | 1006.4 |
| 20260505215939 | 67 | 57 | 9.0 | 14.0 | 0.00 | 0.00 | 0.00 | 35 | 1006.3 |
| 20260505214937 | 68 | 55 | 5.0 | 10.0 | 0.00 | 0.00 | 0.00 | 34 | 1006.4 |
| 20260505214706 | 67 | 46 | 5.0 | 10.0 | 0.00 | 0.00 | 0.00 | 35 | 1006.4 |
| 20260505213935 | 67 | 34 | 6.0 | 10.0 | 0.00 | 0.00 | 0.00 | 36 | 1006.3 |
| 20260505213706 | 67 | 18 | 7.0 | 12.0 | 0.00 | 0.00 | 0.00 | 36 | 1006.5 |
| 20260505212936 | 66 | 18 | 8.0 | 13.0 | 0.00 | 0.00 | 0.00 | 36 | 1006.6 |
| 20260505212435 | 66 | 33 | 8.0 | 13.0 | 0.00 | 0.00 | 0.00 | 36 | 1006.6 |
| 20260505212207 | 66 | 25 | 7.0 | 13.0 | 0.00 | 0.00 | 0.00 | 35 | 1006.8 |
| 20260505211434 | 67 | 93 | 5.0 | 14.0 | 0.00 | 0.00 | 0.00 | 35 | 1006.8 |
| 20260505210933 | 68 | 60 | 5.0 | 14.0 | 0.00 | 0.00 | 0.00 | 35 | 1006.9 |
| 20260505210433 | 67 | 52 | 3.0 | 8.0 | 0.00 | 0.00 | 0.00 | 36 | 1007.0 |
| 20260505205933 | 67 | 0 | 3.0 | 8.0 | 0.00 | 0.00 | 0.00 | 36 | 1007.2 |
| 20260505205431 | 66 | 12 | 4.0 | 9.0 | 0.00 | 0.00 | 0.00 | 36 | 1007.3 |
| 20260505205201 | 66 | 57 | 5.0 | 10.0 | 0.00 | 0.00 | 0.00 | 37 | 1007.3 |
| 20260505204429 | 66 | 26 | 5.0 | 13.0 | 0.00 | 0.00 | 0.00 | 37 | 1007.4 |
| 20260505203927 | 66 | 41 | 3.0 | 13.0 | 0.00 | 0.00 | 0.00 | 37 | 1007.5 |
| 20260505203427 | 65 | 347 | 3.0 | 7.0 | 0.00 | 0.00 | 0.00 | 38 | 1007.6 |
| 20260505202925 | 65 | 13 | 5.0 | 9.0 | 0.00 | 0.00 | 0.00 | 37 | 1007.6 |
| 20260505202423 | 66 | 65 | 4.0 | 9.0 | 0.00 | 0.00 | 0.00 | 37 | 1007.7 |
| 20260505201923 | 66 | 36 | 3.0 | 8.0 | 0.00 | 0.00 | 0.00 | 38 | 1007.7 |
| 20260505201423 | 65 | 359 | 3.0 | 8.0 | 0.00 | 0.00 | 0.00 | 38 | 1007.7 |
| 20260505200923 | 65 | 22 | 5.0 | 13.0 | 0.00 | 0.00 | 0.00 | 38 | 1007.7 |
| 20260505200423 | 64 | 18 | 6.0 | 13.0 | 0.00 | 0.00 | 0.00 | 38 | 1007.7 |
| 20260505195922 | 65 | 0 | 5.0 | 10.0 | 0.00 | 0.00 | 0.00 | 38 | 1007.6 |
| 20260505195655 | 65 | 44 | 4.0 | 11.0 | 0.00 | 0.00 | 0.00 | 38 | 1007.6 |
| 20260505194923 | 64 | 343 | 5.0 | 12.0 | 0.00 | 0.00 | 0.00 | 39 | 1007.7 |
| 20260505194423 | 65 | 25 | 7.0 | 13.0 | 0.00 | 0.00 | 0.00 | 38 | 1007.6 |
| 20260505193917 | 65 | 55 | 5.0 | 13.0 | 0.00 | 0.00 | 0.00 | 38 | 1007.6 |
| 20260505193418 | 64 | 120 | 5.0 | 13.0 | 0.00 | 0.00 | 0.00 | 40 | 1007.7 |
| 20260505192916 | 64 | 4 | 8.0 | 14.0 | 0.00 | 0.00 | 0.00 | 40 | 1007.6 |
| 20260505192417 | 64 | 34 | 7.0 | 14.0 | 0.00 | 0.00 | 0.00 | 39 | 1007.8 |
| 20260505191918 | 64 | 58 | 7.0 | 13.0 | 0.00 | 0.00 | 0.00 | 40 | 1007.7 |
| 20260505191417 | 64 | 8 | 8.0 | 13.0 | 0.00 | 0.00 | 0.00 | 39 | 1007.7 |
| 20260505191149 | 64 | 11 | 7.0 | 14.0 | 0.00 | 0.00 | 0.00 | 40 | 1007.6 |
| 20260505190649 | 64 | 53 | 7.0 | 14.0 | 0.00 | 0.00 | 0.00 | 40 | 1007.7 |
| 20260505185918 | 63 | 25 | 7.0 | 12.0 | 0.00 | 0.00 | 0.00 | 40 | 1007.6 |
| 20260505185415 | 63 | 39 | 7.0 | 13.0 | 0.00 | 0.00 | 0.00 | 41 | 1007.6 |
| 20260505184914 | 63 | 1 | 8.0 | 15.0 | 0.00 | 0.00 | 0.00 | 41 | 1007.7 |
| 20260505184409 | 63 | 15 | 8.0 | 15.0 | 0.00 | 0.00 | 0.00 | 42 | 1007.8 |
| 20260505183909 | 62 | 10 | 9.0 | 14.0 | 0.00 | 0.00 | 0.00 | 43 | 1007.8 |
| 20260505183409 | 62 | 20 | 9.0 | 14.0 | 0.00 | 0.00 | 0.00 | 43 | 1007.9 |
| 20260505182909 | 61 | 35 | 8.0 | 13.0 | 0.00 | 0.00 | 0.00 | 43 | 1008.1 |
| 20260505182407 | 62 | 11 | 9.0 | 13.0 | 0.00 | 0.00 | 0.00 | 43 | 1008.3 |
| 20260505181907 | 61 | 18 | 9.0 | 13.0 | 0.00 | 0.00 | 0.00 | 43 | 1008.2 |
| 20260505181405 | 62 | 22 | 9.0 | 13.0 | 0.00 | 0.00 | 0.00 | 42 | 1008.1 |
| 20260505180905 | 62 | 29 | 9.0 | 14.0 | 0.00 | 0.00 | 0.00 | 43 | 1008.0 |
| 20260505180406 | 61 | 31 | 9.0 | 14.0 | 0.00 | 0.00 | 0.00 | 43 | 1008.1 |
| 20260505175905 | 61 | 13 | 9.0 | 15.0 | 0.00 | 0.00 | 0.00 | 42 | 1008.0 |
| 20260505175406 | 62 | 355 | 9.0 | 15.0 | 0.00 | 0.00 | 0.00 | 43 | 1008.1 |
| 20260505174905 | 62 | 11 | 9.0 | 16.0 | 0.00 | 0.00 | 0.00 | 42 | 1008.1 |
| 20260505174403 | 61 | 57 | 10.0 | 16.0 | 0.00 | 0.00 | 0.00 | 43 | 1008.2 |
| 20260505173903 | 62 | 34 | 9.0 | 16.0 | 0.00 | 0.00 | 0.00 | 42 | 1008.3 |
| 20260505173401 | 63 | 32 | 7.0 | 14.0 | 0.00 | 0.00 | 0.00 | 43 | 1008.2 |
| 20260505172900 | 60 | 12 | 7.0 | 13.0 | 0.00 | 0.00 | 0.00 | 45 | 1008.2 |
| 20260505172401 | 60 | 25 | 8.0 | 14.0 | 0.00 | 0.00 | 0.00 | 45 | 1008.4 |
| 20260505171901 | 60 | 3 | 8.0 | 14.0 | 0.00 | 0.00 | 0.00 | 46 | 1008.2 |
| 20260505171629 | 60 | 6 | 9.0 | 14.0 | 0.00 | 0.00 | 0.00 | 44 | 1008.1 |
| 20260505171131 | 60 | 9 | 9.0 | 15.0 | 0.00 | 0.00 | 0.00 | 44 | 1008.1 |
| 20260505170856 | 60 | 1 | 9.0 | 14.0 | 0.00 | 0.00 | 0.00 | 45 | 1008.1 |
| 20260505170128 | 60 | 14 | 9.0 | 15.0 | 0.00 | 0.00 | 0.00 | 46 | 1008.2 |
| 20260505165355 | 60 | 21 | 10.0 | 18.0 | 0.00 | 0.00 | 0.00 | 45 | 1008.3 |
| 20260505164852 | 60 | 359 | 10.0 | 18.0 | 0.00 | 0.00 | 0.00 | 45 | 1008.2 |
| 20260505164353 | 59 | 17 | 9.0 | 15.0 | 0.00 | 0.00 | 0.00 | 44 | 1008.2 |
| 20260505163853 | 59 | 20 | 9.0 | 16.0 | 0.00 | 0.00 | 0.00 | 46 | 1008.2 |
| 20260505163352 | 59 | 25 | 10.0 | 16.0 | 0.00 | 0.00 | 0.00 | 45 | 1008.1 |
| 20260505162851 | 59 | 27 | 10.0 | 16.0 | 0.00 | 0.00 | 0.00 | 45 | 1008.1 |
| 20260505162351 | 59 | 15 | 10.0 | 16.0 | 0.00 | 0.00 | 0.00 | 44 | 1008.2 |
| 20260505161850 | 58 | 1 | 10.0 | 15.0 | 0.00 | 0.00 | 0.00 | 45 | 1008.2 |
| 20260505161620 | 58 | 38 | 10.0 | 16.0 | 0.00 | 0.00 | 0.00 | 45 | 1008.4 |
| 20260505160848 | 57 | 356 | 11.0 | 16.0 | 0.00 | 0.00 | 0.00 | 46 | 1008.1 |
| 20260505160350 | 58 | 33 | 10.0 | 16.0 | 0.00 | 0.00 | 0.00 | 45 | 1008.2 |
| 20260505152842 | 58 | 352 | 11.0 | 19.0 | 0.00 | 0.00 | 0.00 | 44 | 1007.4 |
| 20260505152614 | 58 | 15 | 11.0 | 19.0 | 0.00 | 0.00 | 0.00 | 44 | 1007.4 |
| 20260505151841 | 57 | 31 | 11.0 | 18.0 | 0.00 | 0.00 | 0.00 | 44 | 1007.4 |
| 20260505151340 | 57 | 23 | 10.0 | 16.0 | 0.00 | 0.00 | 0.00 | 46 | 1007.3 |
| 20260505150838 | 56 | 353 | 11.0 | 16.0 | 0.00 | 0.00 | 0.00 | 47 | 1007.3 |
| 20260505150339 | 56 | 8 | 12.0 | 17.0 | 0.00 | 0.00 | 0.00 | 46 | 1007.2 |
| 20260505140555 | 54 | 0 | 12.0 | 17.0 | 0.00 | 0.00 | 0.00 | 50 | 1007.0 |